Time,TemperatureF,DewpointF,PressureIn,WindDirection,WindDirectionDegrees,WindSpeedMPH,WindSpeedGustMPH,Humidity,HourlyPrecipIn,Conditions,Clouds,dailyrainin,SoftwareType,DateUTC
2013-03-28 00:00:00,34.0,33.0,29.85,ENE,67,2.1,12.8,97,0.00,,,0.00,Rainwise IP-100,2013-03-28 04:00:00,
2013-03-28 00:05:00,33.9,33.0,29.85,ENE,67,3.7,10.5,97,0.00,,,0.00,Rainwise IP-100,2013-03-28 04:05:00,
2013-03-28 00:10:00,33.9,33.0,29.86,NNW,337,4.9,7.7,97,0.00,,,0.00,Rainwise IP-100,2013-03-28 04:10:00,
2013-03-28 00:15:00,33.9,33.0,29.85,North,360,4.9,7.9,97,0.00,,,0.00,Rainwise IP-100,2013-03-28 04:15:00,
2013-03-28 00:16:00,33.8,33.0,29.85,North,360,3.0,8.4,97,0.00,,,0.00,Rainwise IP-100,2013-03-28 04:16:00,
2013-03-28 00:21:00,33.8,33.0,29.86,NNW,337,5.8,9.1,97,0.00,,,0.00,Rainwise IP-100,2013-03-28 04:21:00,
2013-03-28 00:26:00,33.8,33.0,29.86,NNE,22,2.1,10.3,97,0.00,,,0.00,Rainwise IP-100,2013-03-28 04:26:00,
2013-03-28 00:31:00,33.8,33.0,29.85,NNE,22,1.9,8.4,97,0.00,,,0.00,Rainwise IP-100,2013-03-28 04:31:00,
2013-03-28 00:36:00,33.8,33.0,29.85,North,360,6.8,8.9,97,0.00,,,0.00,Rainwise IP-100,2013-03-28 04:36:00,
2013-03-28 00:41:00,33.8,33.0,29.85,North,360,5.6,10.3,97,0.00,,,0.00,Rainwise IP-100,2013-03-28 04:41:00,
2013-03-28 00:46:00,33.9,33.0,29.85,WNW,292,1.4,7.7,97,0.00,,,0.00,Rainwise IP-100,2013-03-28 04:46:00,
2013-03-28 00:51:00,33.8,33.0,29.85,NNE,22,1.2,7.2,97,0.00,,,0.00,Rainwise IP-100,2013-03-28 04:51:00,
2013-03-28 00:56:00,33.8,33.0,29.85,NNE,22,2.1,10.5,97,0.00,,,0.00,Rainwise IP-100,2013-03-28 04:56:00,
2013-03-28 01:01:00,33.8,33.0,29.85,WNW,292,1.6,7.0,97,0.00,,,0.00,Rainwise IP-100,2013-03-28 05:01:00,
2013-03-28 01:06:00,33.8,33.0,29.85,NW,315,4.9,8.2,97,0.00,,,0.00,Rainwise IP-100,2013-03-28 05:06:00,
2013-03-28 01:11:00,33.8,33.0,29.85,NW,315,3.7,7.7,97,0.00,,,0.00,Rainwise IP-100,2013-03-28 05:11:00,
2013-03-28 01:17:00,33.8,33.0,29.86,ENE,67,1.4,7.7,97,0.00,,,0.00,Rainwise IP-100,2013-03-28 05:17:00,
2013-03-28 01:22:00,33.8,33.0,29.85,NNW,337,1.6,8.9,97,0.00,,,0.00,Rainwise IP-100,2013-03-28 05:22:00,
2013-03-28 01:27:00,33.7,33.0,29.85,NNW,337,3.5,6.5,97,0.00,,,0.00,Rainwise IP-100,2013-03-28 05:27:00,
2013-03-28 01:32:00,33.7,33.0,29.85,NW,315,3.0,8.9,97,0.00,,,0.00,Rainwise IP-100,2013-03-28 05:32:00,
2013-03-28 01:37:00,33.7,33.0,29.85,NE,45,2.6,7.9,97,0.00,,,0.00,Rainwise IP-100,2013-03-28 05:37:00,
2013-03-28 01:42:00,33.8,33.0,29.85,NNE,22,0.0,11.2,97,0.00,,,0.00,Rainwise IP-100,2013-03-28 05:42:00,
2013-03-28 01:47:00,33.8,33.0,29.85,NNW,337,1.2,11.0,96,0.00,,,0.00,Rainwise IP-100,2013-03-28 05:47:00,
2013-03-28 01:52:00,33.8,33.0,29.85,NNW,337,1.9,12.4,96,0.00,,,0.00,Rainwise IP-100,2013-03-28 05:52:00,
2013-03-28 01:57:00,33.9,33.0,29.86,North,360,3.0,9.1,95,0.00,,,0.00,Rainwise IP-100,2013-03-28 05:57:00,
2013-03-28 02:02:00,34.0,33.0,29.85,NNE,22,4.0,7.2,95,0.00,,,0.00,Rainwise IP-100,2013-03-28 06:02:00,
2013-03-28 02:07:00,34.1,33.0,29.85,ENE,67,1.2,7.5,95,0.00,,,0.00,Rainwise IP-100,2013-03-28 06:07:00,
2013-03-28 02:12:00,34.1,33.0,29.86,NNE,22,5.1,10.0,94,0.00,,,0.00,Rainwise IP-100,2013-03-28 06:12:00,
2013-03-28 02:17:00,34.2,33.0,29.85,NNE,22,1.4,8.4,94,0.00,,,0.00,Rainwise IP-100,2013-03-28 06:17:00,
2013-03-28 02:22:00,34.3,33.0,29.86,ENE,67,3.5,8.4,93,0.00,,,0.00,Rainwise IP-100,2013-03-28 06:22:00,
2013-03-28 02:27:00,34.3,33.0,29.85,NE,45,1.9,9.6,93,0.00,,,0.00,Rainwise IP-100,2013-03-28 06:27:00,
2013-03-28 02:32:00,34.3,33.0,29.85,NNW,337,4.0,6.5,93,0.00,,,0.00,Rainwise IP-100,2013-03-28 06:32:00,
2013-03-28 02:37:00,34.3,33.0,29.85,North,360,4.9,9.8,93,0.00,,,0.00,Rainwise IP-100,2013-03-28 06:37:00,
2013-03-28 02:42:00,34.2,33.0,29.86,NNW,337,2.3,6.5,93,0.00,,,0.00,Rainwise IP-100,2013-03-28 06:42:00,
2013-03-28 02:47:00,34.2,33.0,29.85,WSW,247,1.6,7.5,93,0.00,,,0.00,Rainwise IP-100,2013-03-28 06:47:00,
2013-03-28 02:52:00,34.1,33.0,29.86,NNW,337,2.6,8.4,93,0.00,,,0.00,Rainwise IP-100,2013-03-28 06:52:00,
2013-03-28 02:57:00,34.1,33.0,29.86,North,360,6.8,7.2,93,0.00,,,0.00,Rainwise IP-100,2013-03-28 06:57:00,
2013-03-28 03:02:00,34.0,33.0,29.86,NNE,22,3.5,6.8,93,0.00,,,0.00,Rainwise IP-100,2013-03-28 07:02:00,
2013-03-28 03:07:00,33.8,33.0,29.86,NNW,337,3.0,4.9,93,0.00,,,0.00,Rainwise IP-100,2013-03-28 07:07:00,
2013-03-28 03:12:00,33.7,33.0,29.86,North,360,4.2,6.1,93,0.00,,,0.00,Rainwise IP-100,2013-03-28 07:12:00,
2013-03-28 03:17:00,33.5,33.0,29.86,NNE,22,6.1,6.5,94,0.00,,,0.00,Rainwise IP-100,2013-03-28 07:17:00,
2013-03-28 03:22:00,33.4,32.0,29.86,NNW,337,1.9,7.2,94,0.00,,,0.00,Rainwise IP-100,2013-03-28 07:22:00,
2013-03-28 03:27:00,33.3,32.0,29.86,NNW,337,4.7,5.1,94,0.00,,,0.00,Rainwise IP-100,2013-03-28 07:27:00,
2013-03-28 03:32:00,33.0,32.0,29.86,NNE,22,3.7,6.5,94,0.00,,,0.00,Rainwise IP-100,2013-03-28 07:32:00,
2013-03-28 03:37:00,32.8,32.0,29.86,NNE,22,2.8,6.5,95,0.00,,,0.00,Rainwise IP-100,2013-03-28 07:37:00,
2013-03-28 03:42:00,32.7,32.0,29.86,NNW,337,4.0,7.0,95,0.00,,,0.00,Rainwise IP-100,2013-03-28 07:42:00,
2013-03-28 03:47:00,32.5,32.0,29.86,North,360,4.2,7.2,95,0.00,,,0.00,Rainwise IP-100,2013-03-28 07:47:00,
2013-03-28 03:52:00,32.2,31.0,29.87,NNW,337,2.1,7.7,95,0.00,,,0.00,Rainwise IP-100,2013-03-28 07:52:00,
2013-03-28 03:57:00,32.0,31.0,29.86,WNW,292,2.6,7.2,96,0.00,,,0.00,Rainwise IP-100,2013-03-28 07:57:00,
2013-03-28 04:02:00,31.9,31.0,29.86,NNW,337,2.3,5.4,96,0.00,,,0.00,Rainwise IP-100,2013-03-28 08:02:00,
2013-03-28 04:07:00,31.7,31.0,29.86,NNW,337,1.6,5.1,96,0.00,,,0.00,Rainwise IP-100,2013-03-28 08:07:00,
2013-03-28 04:12:00,31.7,31.0,29.86,WNW,292,4.9,6.5,97,0.00,,,0.00,Rainwise IP-100,2013-03-28 08:12:00,
2013-03-28 04:17:00,31.7,31.0,29.86,NNE,22,2.3,6.8,97,0.00,,,0.00,Rainwise IP-100,2013-03-28 08:17:00,
2013-03-28 04:22:00,31.7,31.0,29.86,NNW,337,2.1,7.7,96,0.00,,,0.00,Rainwise IP-100,2013-03-28 08:22:00,
2013-03-28 04:27:00,31.8,31.0,29.86,NNW,337,1.9,6.3,96,0.00,,,0.00,Rainwise IP-100,2013-03-28 08:27:00,
2013-03-28 04:32:00,31.8,31.0,29.86,NNW,337,4.2,5.8,96,0.00,,,0.00,Rainwise IP-100,2013-03-28 08:32:00,
2013-03-28 04:37:00,31.7,31.0,29.86,NNW,337,6.1,6.1,96,0.00,,,0.00,Rainwise IP-100,2013-03-28 08:37:00,
2013-03-28 04:42:00,31.8,31.0,29.86,NW,315,4.4,6.3,97,0.00,,,0.00,Rainwise IP-100,2013-03-28 08:42:00,
2013-03-28 04:47:00,32.0,31.0,29.86,WNW,292,6.1,6.8,96,0.00,,,0.00,Rainwise IP-100,2013-03-28 08:47:00,
2013-03-28 04:52:00,32.1,31.0,29.86,NNW,337,2.6,8.2,96,0.00,,,0.00,Rainwise IP-100,2013-03-28 08:52:00,
2013-03-28 04:57:00,32.0,31.0,29.86,NW,315,3.5,7.2,96,0.00,,,0.00,Rainwise IP-100,2013-03-28 08:57:00,
2013-03-28 05:02:00,32.0,31.0,29.86,WNW,292,2.1,7.2,96,0.00,,,0.00,Rainwise IP-100,2013-03-28 09:02:00,
2013-03-28 05:07:00,32.0,31.0,29.86,NNW,337,5.8,5.8,96,0.00,,,0.00,Rainwise IP-100,2013-03-28 09:07:00,
2013-03-28 05:12:00,32.0,31.0,29.86,West,270,2.6,7.2,96,0.00,,,0.00,Rainwise IP-100,2013-03-28 09:12:00,
2013-03-28 05:17:00,32.3,31.0,29.86,NNW,337,4.7,7.2,96,0.00,,,0.00,Rainwise IP-100,2013-03-28 09:17:00,
2013-03-28 05:22:00,32.5,32.0,29.87,NW,315,3.3,6.8,96,0.00,,,0.00,Rainwise IP-100,2013-03-28 09:22:00,
2013-03-28 05:27:00,32.5,32.0,29.87,NW,315,2.3,7.5,96,0.00,,,0.00,Rainwise IP-100,2013-03-28 09:27:00,
2013-03-28 05:32:00,32.6,32.0,29.87,NW,315,5.4,8.4,96,0.00,,,0.00,Rainwise IP-100,2013-03-28 09:32:00,
2013-03-28 05:37:00,32.8,32.0,29.87,NNW,337,4.0,7.7,96,0.00,,,0.00,Rainwise IP-100,2013-03-28 09:37:00,
2013-03-28 05:42:00,32.9,32.0,29.87,WNW,292,2.1,5.8,96,0.00,,,0.00,Rainwise IP-100,2013-03-28 09:42:00,
2013-03-28 05:47:00,32.9,32.0,29.87,WNW,292,1.9,5.6,96,0.00,,,0.00,Rainwise IP-100,2013-03-28 09:47:00,
2013-03-28 05:52:00,32.9,32.0,29.87,West,270,1.9,9.1,96,0.00,,,0.00,Rainwise IP-100,2013-03-28 09:52:00,
2013-03-28 05:57:00,32.9,32.0,29.87,NNW,337,5.1,8.4,96,0.00,,,0.00,Rainwise IP-100,2013-03-28 09:57:00,
2013-03-28 06:02:00,32.9,32.0,29.88,NNW,337,2.3,7.5,96,0.00,,,0.00,Rainwise IP-100,2013-03-28 10:02:00,
2013-03-28 06:07:00,32.9,32.0,29.88,NNW,337,7.5,7.5,96,0.00,,,0.00,Rainwise IP-100,2013-03-28 10:07:00,
2013-03-28 06:12:00,32.9,32.0,29.87,NNW,337,2.3,7.5,96,0.00,,,0.00,Rainwise IP-100,2013-03-28 10:12:00,
2013-03-28 06:17:00,32.9,32.0,29.88,NNW,337,2.6,8.4,96,0.00,,,0.00,Rainwise IP-100,2013-03-28 10:17:00,
2013-03-28 06:22:00,32.9,32.0,29.88,NNW,337,3.5,5.4,96,0.00,,,0.00,Rainwise IP-100,2013-03-28 10:22:00,
2013-03-28 06:27:00,32.9,32.0,29.88,NNW,337,1.6,5.8,96,0.00,,,0.00,Rainwise IP-100,2013-03-28 10:27:00,
2013-03-28 06:32:00,33.0,32.0,29.88,NNW,337,4.0,6.5,96,0.00,,,0.00,Rainwise IP-100,2013-03-28 10:32:00,
2013-03-28 06:37:00,33.2,32.0,29.88,NNW,337,4.0,8.4,95,0.00,,,0.00,Rainwise IP-100,2013-03-28 10:37:00,
2013-03-28 06:42:00,33.4,32.0,29.88,NW,315,4.4,8.4,95,0.00,,,0.00,Rainwise IP-100,2013-03-28 10:42:00,
2013-03-28 06:47:00,33.5,33.0,29.88,North,360,4.4,9.1,95,0.00,,,0.00,Rainwise IP-100,2013-03-28 10:47:00,
2013-03-28 06:52:00,33.7,33.0,29.88,NNW,337,6.3,7.9,95,0.00,,,0.00,Rainwise IP-100,2013-03-28 10:52:00,
2013-03-28 06:58:00,33.7,33.0,29.89,North,360,4.2,9.1,95,0.00,,,0.00,Rainwise IP-100,2013-03-28 10:58:00,
2013-03-28 07:03:00,33.8,33.0,29.89,WNW,292,3.3,7.2,95,0.00,,,0.00,Rainwise IP-100,2013-03-28 11:03:00,
2013-03-28 07:08:00,33.8,33.0,29.89,NW,315,2.8,5.8,94,0.00,,,0.00,Rainwise IP-100,2013-03-28 11:08:00,
2013-03-28 07:13:00,33.8,33.0,29.89,NNE,22,3.7,8.6,94,0.00,,,0.00,Rainwise IP-100,2013-03-28 11:13:00,
2013-03-28 07:18:00,33.9,33.0,29.89,NNE,22,1.6,7.2,94,0.00,,,0.00,Rainwise IP-100,2013-03-28 11:18:00,
2013-03-28 07:23:00,34.0,33.0,29.89,North,360,0.0,6.8,94,0.00,,,0.00,Rainwise IP-100,2013-03-28 11:23:00,
2013-03-28 07:28:00,34.1,33.0,29.89,NNE,22,2.1,7.0,94,0.00,,,0.00,Rainwise IP-100,2013-03-28 11:28:00,
2013-03-28 07:33:00,34.2,33.0,29.90,WNW,292,1.9,5.6,93,0.00,,,0.00,Rainwise IP-100,2013-03-28 11:33:00,
2013-03-28 07:38:00,34.3,33.0,29.90,NW,315,2.8,8.4,93,0.00,,,0.00,Rainwise IP-100,2013-03-28 11:38:00,
2013-03-28 07:43:00,34.4,33.0,29.90,WNW,292,2.1,5.6,93,0.00,,,0.00,Rainwise IP-100,2013-03-28 11:43:00,
2013-03-28 07:48:00,34.4,33.0,29.90,North,360,4.2,7.2,93,0.00,,,0.00,Rainwise IP-100,2013-03-28 11:48:00,
2013-03-28 07:53:00,34.5,33.0,29.90,NW,315,3.3,6.1,93,0.00,,,0.00,Rainwise IP-100,2013-03-28 11:53:00,
2013-03-28 07:58:00,34.6,33.0,29.91,NW,315,3.3,6.8,93,0.00,,,0.00,Rainwise IP-100,2013-03-28 11:58:00,
2013-03-28 08:03:00,34.7,33.0,29.91,NNW,337,2.1,7.0,93,0.00,,,0.00,Rainwise IP-100,2013-03-28 12:03:00,
2013-03-28 08:08:00,34.8,33.0,29.91,NNW,337,0.0,6.3,93,0.00,,,0.00,Rainwise IP-100,2013-03-28 12:08:00,
2013-03-28 08:13:00,34.9,32.0,29.91,WSW,247,0.0,7.9,92,0.00,,,0.00,Rainwise IP-100,2013-03-28 12:13:00,
2013-03-28 08:18:00,35.1,32.0,29.91,NNW,337,5.4,8.4,92,0.00,,,0.00,Rainwise IP-100,2013-03-28 12:18:00,
2013-03-28 08:23:00,35.3,32.0,29.91,WNW,292,2.8,9.1,92,0.00,,,0.00,Rainwise IP-100,2013-03-28 12:23:00,
2013-03-28 08:28:00,35.5,33.0,29.91,NNW,337,5.4,6.1,91,0.00,,,0.00,Rainwise IP-100,2013-03-28 12:28:00,
2013-03-28 08:33:00,35.5,33.0,29.91,NW,315,1.2,7.2,91,0.00,,,0.00,Rainwise IP-100,2013-03-28 12:33:00,
2013-03-28 08:38:00,35.6,33.0,29.91,North,360,3.7,7.7,91,0.00,,,0.00,Rainwise IP-100,2013-03-28 12:38:00,
2013-03-28 08:43:00,35.7,33.0,29.91,NE,45,3.0,9.3,91,0.00,,,0.00,Rainwise IP-100,2013-03-28 12:43:00,
2013-03-28 08:48:00,35.9,33.0,29.91,NNW,337,4.4,7.9,90,0.00,,,0.00,Rainwise IP-100,2013-03-28 12:48:00,
2013-03-28 08:53:00,36.2,33.0,29.91,NNW,337,4.0,7.7,90,0.00,,,0.00,Rainwise IP-100,2013-03-28 12:53:00,
2013-03-28 08:58:00,36.3,33.0,29.91,WSW,247,0.0,7.5,90,0.00,,,0.00,Rainwise IP-100,2013-03-28 12:58:00,
2013-03-28 09:03:00,36.5,35.0,29.91,NNW,337,2.6,7.5,89,0.00,,,0.00,Rainwise IP-100,2013-03-28 13:03:00,
2013-03-28 09:08:00,36.7,35.0,29.91,WNW,292,2.3,9.6,89,0.00,,,0.00,Rainwise IP-100,2013-03-28 13:08:00,
2013-03-28 09:13:00,37.0,33.0,29.91,WNW,292,1.6,9.1,88,0.00,,,0.00,Rainwise IP-100,2013-03-28 13:13:00,
2013-03-28 09:18:00,37.2,33.0,29.91,WNW,292,4.0,6.8,88,0.00,,,0.00,Rainwise IP-100,2013-03-28 13:18:00,
2013-03-28 09:23:00,37.4,33.0,29.91,WNW,292,4.9,8.9,87,0.00,,,0.00,Rainwise IP-100,2013-03-28 13:23:00,
2013-03-28 09:28:00,37.6,35.0,29.91,NE,45,4.4,6.5,87,0.00,,,0.00,Rainwise IP-100,2013-03-28 13:28:00,
2013-03-28 09:33:00,38.0,35.0,29.91,NW,315,5.1,6.1,87,0.00,,,0.00,Rainwise IP-100,2013-03-28 13:33:00,
2013-03-28 09:38:00,38.1,35.0,29.91,WNW,292,2.6,7.2,86,0.00,,,0.00,Rainwise IP-100,2013-03-28 13:38:00,
2013-03-28 09:43:00,38.2,35.0,29.92,WNW,292,4.0,8.6,86,0.00,,,0.00,Rainwise IP-100,2013-03-28 13:43:00,
2013-03-28 09:48:00,38.4,35.0,29.91,NE,45,1.4,6.8,86,0.00,,,0.00,Rainwise IP-100,2013-03-28 13:48:00,
2013-03-28 09:53:00,38.7,35.0,29.92,NW,315,4.9,5.1,85,0.00,,,0.00,Rainwise IP-100,2013-03-28 13:53:00,
2013-03-28 09:58:00,39.0,35.0,29.92,NNW,337,4.4,9.6,84,0.00,,,0.00,Rainwise IP-100,2013-03-28 13:58:00,
2013-03-28 10:03:00,39.2,35.0,29.92,NW,315,5.4,8.9,83,0.00,,,0.00,Rainwise IP-100,2013-03-28 14:03:00,
2013-03-28 10:08:00,39.5,36.0,29.92,NNE,22,4.2,10.0,82,0.00,,,0.00,Rainwise IP-100,2013-03-28 14:08:00,
2013-03-28 10:13:00,39.8,35.0,29.92,NNW,337,4.9,11.9,81,0.00,,,0.00,Rainwise IP-100,2013-03-28 14:13:00,
2013-03-28 10:18:00,40.0,35.0,29.92,NW,315,0.0,7.9,81,0.00,,,0.00,Rainwise IP-100,2013-03-28 14:18:00,
2013-03-28 10:23:00,40.0,35.0,29.92,NW,315,3.3,10.0,81,0.00,,,0.00,Rainwise IP-100,2013-03-28 14:23:00,
2013-03-28 10:28:00,40.2,35.0,29.92,NW,315,2.8,13.1,80,0.00,,,0.00,Rainwise IP-100,2013-03-28 14:28:00,
2013-03-28 10:33:00,40.5,36.0,29.92,WNW,292,1.9,7.7,79,0.00,,,0.00,Rainwise IP-100,2013-03-28 14:33:00,
2013-03-28 10:38:00,40.9,36.0,29.92,WNW,292,3.7,7.2,79,0.00,,,0.00,Rainwise IP-100,2013-03-28 14:38:00,
2013-03-28 10:43:00,41.2,35.0,29.92,SSE,157,2.8,12.4,77,0.00,,,0.00,Rainwise IP-100,2013-03-28 14:43:00,
2013-03-28 10:48:00,41.5,36.0,29.92,WNW,292,3.0,4.7,76,0.00,,,0.00,Rainwise IP-100,2013-03-28 14:48:00,
2013-03-28 10:53:00,41.7,36.0,29.92,NNE,22,1.4,7.7,76,0.00,,,0.00,Rainwise IP-100,2013-03-28 14:53:00,
2013-03-28 10:58:00,41.8,35.0,29.93,NNE,22,0.0,6.1,75,0.00,,,0.00,Rainwise IP-100,2013-03-28 14:58:00,
2013-03-28 11:03:00,42.2,35.0,29.92,NNW,337,5.1,6.5,75,0.00,,,0.00,Rainwise IP-100,2013-03-28 15:03:00,
2013-03-28 11:08:00,42.7,35.0,29.92,ESE,112,2.3,10.5,73,0.00,,,0.00,Rainwise IP-100,2013-03-28 15:08:00,
2013-03-28 11:13:00,43.4,35.0,29.92,SSE,157,0.0,7.0,71,0.00,,,0.00,Rainwise IP-100,2013-03-28 15:13:00,
2013-03-28 11:18:00,44.1,35.0,29.92,NNW,337,5.4,8.6,69,0.00,,,0.00,Rainwise IP-100,2013-03-28 15:18:00,
2013-03-28 11:23:00,43.7,35.0,29.92,NNE,22,8.9,11.9,68,0.00,,,0.00,Rainwise IP-100,2013-03-28 15:23:00,
2013-03-28 11:28:00,43.2,35.0,29.92,WNW,292,1.2,12.1,70,0.00,,,0.00,Rainwise IP-100,2013-03-28 15:28:00,
2013-03-28 11:33:00,43.3,35.0,29.92,NNW,337,7.5,11.4,71,0.00,,,0.00,Rainwise IP-100,2013-03-28 15:33:00,
2013-03-28 11:38:00,43.5,35.0,29.92,North,360,2.1,11.9,69,0.00,,,0.00,Rainwise IP-100,2013-03-28 15:38:00,
2013-03-28 11:43:00,44.2,33.0,29.92,NNW,337,5.6,10.7,67,0.00,,,0.00,Rainwise IP-100,2013-03-28 15:43:00,
2013-03-28 11:48:00,45.0,35.0,29.91,WNW,292,4.7,9.6,66,0.00,,,0.00,Rainwise IP-100,2013-03-28 15:48:00,
2013-03-28 11:53:00,45.2,33.0,29.92,NNW,337,3.5,11.2,64,0.00,,,0.00,Rainwise IP-100,2013-03-28 15:53:00,
2013-03-28 11:59:00,45.2,33.0,29.91,NNW,337,5.1,10.7,64,0.00,,,0.00,Rainwise IP-100,2013-03-28 15:59:00,
2013-03-28 12:04:00,45.5,35.0,29.92,NNW,337,2.8,7.7,64,0.00,,,0.00,Rainwise IP-100,2013-03-28 16:04:00,
2013-03-28 12:09:00,45.4,33.0,29.91,WNW,292,3.7,12.6,64,0.00,,,0.00,Rainwise IP-100,2013-03-28 16:09:00,
2013-03-28 12:14:00,44.8,35.0,29.91,WSW,247,2.3,8.2,65,0.00,,,0.00,Rainwise IP-100,2013-03-28 16:14:00,
2013-03-28 12:19:00,44.4,33.0,29.91,NNW,337,2.8,8.6,66,0.00,,,0.00,Rainwise IP-100,2013-03-28 16:19:00,
2013-03-28 12:24:00,43.9,33.0,29.91,NNE,22,3.7,11.4,67,0.00,,,0.00,Rainwise IP-100,2013-03-28 16:24:00,
2013-03-28 12:29:00,43.7,35.0,29.91,WSW,247,5.1,9.1,68,0.00,,,0.00,Rainwise IP-100,2013-03-28 16:29:00,
2013-03-28 12:34:00,43.6,35.0,29.92,West,270,6.3,10.7,68,0.00,,,0.00,Rainwise IP-100,2013-03-28 16:34:00,
2013-03-28 12:39:00,43.6,35.0,29.92,NNW,337,1.9,9.3,69,0.00,,,0.00,Rainwise IP-100,2013-03-28 16:39:00,
2013-03-28 12:44:00,44.0,35.0,29.91,NNE,22,8.4,8.4,68,0.00,,,0.00,Rainwise IP-100,2013-03-28 16:44:00,
2013-03-28 12:49:00,44.6,35.0,29.91,NNW,337,1.6,8.4,68,0.00,,,0.00,Rainwise IP-100,2013-03-28 16:49:00,
2013-03-28 12:54:00,45.2,35.0,29.91,NNW,337,4.9,11.2,67,0.00,,,0.00,Rainwise IP-100,2013-03-28 16:54:00,
2013-03-28 12:59:00,45.5,35.0,29.91,NE,45,1.4,7.2,66,0.00,,,0.00,Rainwise IP-100,2013-03-28 16:59:00,
2013-03-28 13:04:00,45.7,35.0,29.91,ENE,67,2.1,8.9,65,0.00,,,0.00,Rainwise IP-100,2013-03-28 17:04:00,
2013-03-28 13:09:00,45.7,35.0,29.91,NNE,22,3.5,8.6,64,0.00,,,0.00,Rainwise IP-100,2013-03-28 17:09:00,
2013-03-28 13:14:00,45.6,33.0,29.91,NNW,337,4.9,11.9,62,0.00,,,0.00,Rainwise IP-100,2013-03-28 17:14:00,
2013-03-28 13:19:00,45.3,32.0,29.91,NW,315,7.5,12.4,61,0.00,,,0.00,Rainwise IP-100,2013-03-28 17:19:00,
2013-03-28 13:24:00,44.9,32.0,29.91,NNE,22,1.4,11.4,60,0.00,,,0.00,Rainwise IP-100,2013-03-28 17:24:00,
2013-03-28 13:29:00,44.6,32.0,29.91,NNW,337,3.7,8.2,61,0.00,,,0.00,Rainwise IP-100,2013-03-28 17:29:00,
2013-03-28 13:34:00,44.5,32.0,29.91,West,270,1.2,7.5,61,0.00,,,0.00,Rainwise IP-100,2013-03-28 17:34:00,
2013-03-28 13:39:00,44.4,32.0,29.91,NNW,337,4.7,11.4,62,0.00,,,0.00,Rainwise IP-100,2013-03-28 17:39:00,
2013-03-28 13:44:00,44.2,32.0,29.91,ENE,67,0.0,8.4,62,0.00,,,0.00,Rainwise IP-100,2013-03-28 17:44:00,
2013-03-28 13:49:00,44.1,32.0,29.91,WNW,292,6.1,10.0,61,0.00,,,0.00,Rainwise IP-100,2013-03-28 17:49:00,
2013-03-28 13:54:00,44.2,32.0,29.91,NW,315,2.8,10.0,61,0.00,,,0.00,Rainwise IP-100,2013-03-28 17:54:00,
2013-03-28 13:59:00,44.1,32.0,29.91,NW,315,3.7,7.9,63,0.00,,,0.00,Rainwise IP-100,2013-03-28 17:59:00,
2013-03-28 14:04:00,43.7,33.0,29.92,NNW,337,5.4,11.4,66,0.00,,,0.00,Rainwise IP-100,2013-03-28 18:04:00,
2013-03-28 14:09:00,42.9,33.0,29.91,NW,315,1.4,11.9,69,0.00,,,0.00,Rainwise IP-100,2013-03-28 18:09:00,
2013-03-28 14:14:00,42.4,33.0,29.91,NNW,337,2.8,10.3,72,0.00,,,0.00,Rainwise IP-100,2013-03-28 18:14:00,
2013-03-28 14:19:00,42.6,35.0,29.91,WNW,292,2.6,9.6,73,0.00,,,0.00,Rainwise IP-100,2013-03-28 18:19:00,
2013-03-28 14:24:00,43.3,35.0,29.91,WSW,247,2.3,8.2,72,0.00,,,0.00,Rainwise IP-100,2013-03-28 18:24:00,
2013-03-28 14:29:00,44.0,36.0,29.91,West,270,3.7,7.9,71,0.00,,,0.00,Rainwise IP-100,2013-03-28 18:29:00,
2013-03-28 14:34:00,44.4,35.0,29.91,NW,315,4.4,6.3,69,0.00,,,0.00,Rainwise IP-100,2013-03-28 18:34:00,
2013-03-28 14:39:00,44.6,35.0,29.91,WNW,292,1.9,6.1,68,0.00,,,0.00,Rainwise IP-100,2013-03-28 18:39:00,
2013-03-28 14:44:00,44.8,35.0,29.91,WSW,247,1.9,5.4,68,0.00,,,0.00,Rainwise IP-100,2013-03-28 18:44:00,
2013-03-28 14:49:00,45.2,35.0,29.91,NW,315,4.9,4.9,67,0.00,,,0.00,Rainwise IP-100,2013-03-28 18:49:00,
2013-03-28 14:54:00,45.8,35.0,29.91,ESE,112,2.6,6.8,65,0.00,,,0.00,Rainwise IP-100,2013-03-28 18:54:00,
2013-03-28 14:59:00,46.5,35.0,29.91,NE,45,4.2,5.4,64,0.00,,,0.00,Rainwise IP-100,2013-03-28 18:59:00,
2013-03-28 15:04:00,47.2,35.0,29.91,NNW,337,5.1,6.8,61,0.00,,,0.00,Rainwise IP-100,2013-03-28 19:04:00,
2013-03-28 15:09:00,47.5,33.0,29.90,North,360,2.3,8.4,58,0.00,,,0.00,Rainwise IP-100,2013-03-28 19:09:00,
2013-03-28 15:14:00,48.1,33.0,29.90,NNE,22,6.3,7.9,55,0.00,,,0.00,Rainwise IP-100,2013-03-28 19:14:00,
2013-03-28 15:19:00,48.7,33.0,29.90,NNW,337,4.4,7.5,53,0.00,,,0.00,Rainwise IP-100,2013-03-28 19:19:00,
2013-03-28 15:24:00,49.1,32.0,29.91,NNW,337,4.2,9.1,51,0.00,,,0.00,Rainwise IP-100,2013-03-28 19:24:00,
2013-03-28 15:29:00,49.1,32.0,29.91,NNE,22,2.1,7.9,50,0.00,,,0.00,Rainwise IP-100,2013-03-28 19:29:00,
2013-03-28 15:34:00,49.0,32.0,29.91,NNW,337,7.7,7.7,50,0.00,,,0.00,Rainwise IP-100,2013-03-28 19:34:00,
2013-03-28 15:39:00,48.6,32.0,29.90,East,90,2.8,8.9,50,0.00,,,0.00,Rainwise IP-100,2013-03-28 19:39:00,
2013-03-28 15:44:00,47.9,31.0,29.90,NNW,337,4.4,5.8,51,0.00,,,0.00,Rainwise IP-100,2013-03-28 19:44:00,
2013-03-28 15:49:00,47.3,31.0,29.91,NNW,337,1.4,7.2,51,0.00,,,0.00,Rainwise IP-100,2013-03-28 19:49:00,
2013-03-28 15:54:00,46.6,31.0,29.91,North,360,5.6,8.2,53,0.00,,,0.00,Rainwise IP-100,2013-03-28 19:54:00,
2013-03-28 15:59:00,46.0,31.0,29.90,West,270,3.3,8.2,55,0.00,,,0.00,Rainwise IP-100,2013-03-28 19:59:00,
2013-03-28 16:04:00,45.6,32.0,29.90,NNW,337,3.7,8.9,57,0.00,,,0.00,Rainwise IP-100,2013-03-28 20:04:00,
2013-03-28 16:09:00,45.3,31.0,29.91,NNW,337,3.5,5.4,58,0.00,,,0.00,Rainwise IP-100,2013-03-28 20:09:00,
2013-03-28 16:14:00,45.3,31.0,29.90,NNW,337,2.1,6.5,58,0.00,,,0.00,Rainwise IP-100,2013-03-28 20:14:00,
2013-03-28 16:19:00,45.4,31.0,29.90,WNW,292,2.1,6.3,58,0.00,,,0.00,Rainwise IP-100,2013-03-28 20:19:00,
2013-03-28 16:24:00,46.0,32.0,29.90,SW,225,0.0,6.5,57,0.00,,,0.00,Rainwise IP-100,2013-03-28 20:24:00,
2013-03-28 16:29:00,47.0,32.0,29.91,WNW,292,2.3,2.3,56,0.00,,,0.00,Rainwise IP-100,2013-03-28 20:29:00,
2013-03-28 16:34:00,47.3,32.0,29.90,NNW,337,1.9,6.8,54,0.00,,,0.00,Rainwise IP-100,2013-03-28 20:34:00,
2013-03-28 16:39:00,46.8,31.0,29.90,NW,315,0.0,4.9,54,0.00,,,0.00,Rainwise IP-100,2013-03-28 20:39:00,
2013-03-28 16:44:00,46.6,31.0,29.90,WNW,292,1.4,4.9,54,0.00,,,0.00,Rainwise IP-100,2013-03-28 20:44:00,
2013-03-28 16:49:00,46.3,31.0,29.90,NNW,337,1.4,7.9,54,0.00,,,0.00,Rainwise IP-100,2013-03-28 20:49:00,
2013-03-28 16:54:00,46.0,31.0,29.90,NNW,337,1.9,6.5,55,0.00,,,0.00,Rainwise IP-100,2013-03-28 20:54:00,
2013-03-28 16:59:00,45.7,31.0,29.90,WNW,292,0.0,3.7,56,0.00,,,0.00,Rainwise IP-100,2013-03-28 20:59:00,
2013-03-28 17:04:00,45.4,31.0,29.90,NNW,337,1.9,3.7,57,0.00,,,0.00,Rainwise IP-100,2013-03-28 21:04:00,
2013-03-28 17:09:00,45.4,31.0,29.90,NNW,337,2.1,3.5,57,0.00,,,0.00,Rainwise IP-100,2013-03-28 21:09:00,
2013-03-28 17:15:00,45.5,32.0,29.90,WNW,292,1.6,4.7,57,0.00,,,0.00,Rainwise IP-100,2013-03-28 21:15:00,
2013-03-28 17:20:00,45.5,32.0,29.90,WNW,292,3.0,7.5,57,0.00,,,0.00,Rainwise IP-100,2013-03-28 21:20:00,
2013-03-28 17:25:00,45.5,31.0,29.90,NW,315,2.1,4.9,56,0.00,,,0.00,Rainwise IP-100,2013-03-28 21:25:00,
2013-03-28 17:30:00,45.6,31.0,29.90,NW,315,1.6,3.5,55,0.00,,,0.00,Rainwise IP-100,2013-03-28 21:30:00,
2013-03-28 17:35:00,45.7,31.0,29.91,NNW,337,1.6,3.7,55,0.00,,,0.00,Rainwise IP-100,2013-03-28 21:35:00,
2013-03-28 17:40:00,45.8,31.0,29.91,NW,315,2.1,3.3,54,0.00,,,0.00,Rainwise IP-100,2013-03-28 21:40:00,
2013-03-28 17:45:00,45.9,31.0,29.91,NNW,337,1.4,4.2,54,0.00,,,0.00,Rainwise IP-100,2013-03-28 21:45:00,
2013-03-28 17:50:00,45.8,31.0,29.91,WNW,292,2.3,3.0,54,0.00,,,0.00,Rainwise IP-100,2013-03-28 21:50:00,
2013-03-28 17:55:00,45.7,31.0,29.91,WNW,292,0.0,2.8,54,0.00,,,0.00,Rainwise IP-100,2013-03-28 21:55:00,
2013-03-28 18:00:00,45.6,31.0,29.91,WNW,292,1.4,3.5,54,0.00,,,0.00,Rainwise IP-100,2013-03-28 22:00:00,
2013-03-28 18:05:00,45.4,29.0,29.91,NW,315,1.4,4.0,54,0.00,,,0.00,Rainwise IP-100,2013-03-28 22:05:00,
2013-03-28 18:10:00,45.2,29.0,29.91,WNW,292,1.2,2.6,54,0.00,,,0.00,Rainwise IP-100,2013-03-28 22:10:00,
2013-03-28 18:15:00,44.9,29.0,29.91,WNW,292,2.1,3.5,54,0.00,,,0.00,Rainwise IP-100,2013-03-28 22:15:00,
2013-03-28 18:20:00,44.8,29.0,29.92,WNW,292,1.4,4.0,54,0.00,,,0.00,Rainwise IP-100,2013-03-28 22:20:00,
2013-03-28 18:25:00,44.7,29.0,29.92,NW,315,0.0,3.5,54,0.00,,,0.00,Rainwise IP-100,2013-03-28 22:25:00,
2013-03-28 18:30:00,44.6,29.0,29.92,NW,315,1.2,3.3,54,0.00,,,0.00,Rainwise IP-100,2013-03-28 22:30:00,
2013-03-28 18:35:00,44.5,31.0,29.92,WNW,292,0.0,2.8,55,0.00,,,0.00,Rainwise IP-100,2013-03-28 22:35:00,
2013-03-28 18:40:00,44.4,29.0,29.92,WNW,292,0.0,0.0,55,0.00,,,0.00,Rainwise IP-100,2013-03-28 22:40:00,
2013-03-28 18:45:00,44.1,29.0,29.92,WNW,292,0.0,0.0,55,0.00,,,0.00,Rainwise IP-100,2013-03-28 22:45:00,
2013-03-28 18:50:00,43.8,29.0,29.92,WNW,292,0.0,0.0,56,0.00,,,0.00,Rainwise IP-100,2013-03-28 22:50:00,
2013-03-28 18:55:00,43.5,29.0,29.92,WNW,292,0.0,0.0,55,0.00,,,0.00,Rainwise IP-100,2013-03-28 22:55:00,
2013-03-28 19:00:00,43.2,28.0,29.92,WNW,292,0.0,0.0,55,0.00,,,0.00,Rainwise IP-100,2013-03-28 23:00:00,
2013-03-28 19:05:00,43.0,28.0,29.92,WNW,292,0.0,0.0,55,0.00,,,0.00,Rainwise IP-100,2013-03-28 23:05:00,
2013-03-28 19:10:00,42.8,28.0,29.92,WNW,292,0.0,0.0,55,0.00,,,0.00,Rainwise IP-100,2013-03-28 23:10:00,
2013-03-28 19:15:00,42.5,28.0,29.93,WNW,292,0.0,0.0,55,0.00,,,0.00,Rainwise IP-100,2013-03-28 23:15:00,
2013-03-28 19:20:00,42.4,28.0,29.93,WNW,292,0.0,0.0,55,0.00,,,0.00,Rainwise IP-100,2013-03-28 23:20:00,
2013-03-28 19:25:00,42.3,28.0,29.93,WNW,292,1.4,3.0,54,0.00,,,0.00,Rainwise IP-100,2013-03-28 23:25:00,
2013-03-28 19:30:00,42.4,28.0,29.93,WNW,292,1.2,3.3,54,0.00,,,0.00,Rainwise IP-100,2013-03-28 23:30:00,
2013-03-28 19:35:00,42.6,28.0,29.93,WNW,292,1.2,3.5,53,0.00,,,0.00,Rainwise IP-100,2013-03-28 23:35:00,
2013-03-28 19:40:00,42.9,28.0,29.94,WNW,292,1.2,2.6,53,0.00,,,0.00,Rainwise IP-100,2013-03-28 23:40:00,
2013-03-28 19:45:00,43.0,28.0,29.94,WNW,292,1.2,4.2,52,0.00,,,0.00,Rainwise IP-100,2013-03-28 23:45:00,
2013-03-28 19:50:00,43.1,28.0,29.94,WNW,292,1.4,5.1,52,0.00,,,0.00,Rainwise IP-100,2013-03-28 23:50:00,
2013-03-28 19:55:00,43.3,26.0,29.94,WNW,292,1.6,5.4,51,0.00,,,0.00,Rainwise IP-100,2013-03-28 23:55:00,
2013-03-28 20:00:00,43.5,28.0,29.94,WNW,292,1.4,6.8,51,0.00,,,0.00,Rainwise IP-100,2013-03-29 00:00:00,
2013-03-28 20:05:00,43.5,28.0,29.94,WNW,292,3.5,5.4,51,0.00,,,0.00,Rainwise IP-100,2013-03-29 00:05:00,
2013-03-28 20:10:00,43.5,28.0,29.95,NW,315,4.0,4.7,51,0.00,,,0.00,Rainwise IP-100,2013-03-29 00:10:00,
2013-03-28 20:15:00,43.7,28.0,29.94,West,270,2.1,4.0,51,0.00,,,0.00,Rainwise IP-100,2013-03-29 00:15:00,
2013-03-28 20:20:00,43.7,28.0,29.94,WNW,292,2.1,4.2,51,0.00,,,0.00,Rainwise IP-100,2013-03-29 00:20:00,
2013-03-28 20:25:00,43.6,28.0,29.94,WNW,292,2.8,4.9,51,0.00,,,0.00,Rainwise IP-100,2013-03-29 00:25:00,
2013-03-28 20:30:00,43.5,28.0,29.94,NW,315,1.9,4.0,50,0.00,,,0.00,Rainwise IP-100,2013-03-29 00:30:00,
2013-03-28 20:35:00,43.4,26.0,29.94,WNW,292,1.9,3.5,50,0.00,,,0.00,Rainwise IP-100,2013-03-29 00:35:00,
2013-03-28 20:40:00,43.5,28.0,29.94,WNW,292,1.9,5.1,50,0.00,,,0.00,Rainwise IP-100,2013-03-29 00:40:00,
2013-03-28 20:45:00,43.5,28.0,29.94,WNW,292,2.1,4.0,50,0.00,,,0.00,Rainwise IP-100,2013-03-29 00:45:00,
2013-03-28 20:50:00,43.4,26.0,29.94,NW,315,2.6,2.8,50,0.00,,,0.00,Rainwise IP-100,2013-03-29 00:50:00,
2013-03-28 20:55:00,43.2,26.0,29.94,NW,315,1.9,3.7,50,0.00,,,0.00,Rainwise IP-100,2013-03-29 00:55:00,
2013-03-28 21:00:00,42.8,26.0,29.94,WNW,292,1.9,2.6,51,0.00,,,0.00,Rainwise IP-100,2013-03-29 01:00:00,
2013-03-28 21:05:00,41.9,28.0,29.95,WNW,292,1.6,2.6,54,0.00,,,0.00,Rainwise IP-100,2013-03-29 01:05:00,
2013-03-28 21:10:00,41.0,28.0,29.94,WNW,292,2.1,2.8,59,0.00,,,0.00,Rainwise IP-100,2013-03-29 01:10:00,
2013-03-28 21:15:00,40.4,29.0,29.94,West,270,2.3,3.3,65,0.00,,,0.00,Rainwise IP-100,2013-03-29 01:15:00,
2013-03-28 21:20:00,39.9,31.0,29.94,WNW,292,1.9,3.3,68,0.00,,,0.00,Rainwise IP-100,2013-03-29 01:20:00,
2013-03-28 21:25:00,39.4,31.0,29.94,WNW,292,2.3,4.7,70,0.00,,,0.00,Rainwise IP-100,2013-03-29 01:25:00,
2013-03-28 21:30:00,39.0,32.0,29.94,WNW,292,1.9,4.2,73,0.00,,,0.00,Rainwise IP-100,2013-03-29 01:30:00,
2013-03-28 21:35:00,38.7,32.0,29.94,WNW,292,4.4,6.5,74,0.00,,,0.00,Rainwise IP-100,2013-03-29 01:35:00,
2013-03-28 21:40:00,38.7,32.0,29.94,WNW,292,2.8,7.0,74,0.00,,,0.00,Rainwise IP-100,2013-03-29 01:40:00,
2013-03-28 21:45:00,38.8,32.0,29.94,West,270,1.6,7.2,73,0.00,,,0.00,Rainwise IP-100,2013-03-29 01:45:00,
2013-03-28 21:50:00,39.0,31.0,29.95,WNW,292,2.8,5.1,71,0.00,,,0.00,Rainwise IP-100,2013-03-29 01:50:00,
2013-03-28 21:55:00,39.4,31.0,29.95,WNW,292,1.9,5.1,69,0.00,,,0.00,Rainwise IP-100,2013-03-29 01:55:00,
2013-03-28 22:00:00,39.7,31.0,29.95,WNW,292,2.1,4.7,68,0.00,,,0.00,Rainwise IP-100,2013-03-29 02:00:00,
2013-03-28 22:05:00,40.0,31.0,29.95,NW,315,1.6,4.0,67,0.00,,,0.00,Rainwise IP-100,2013-03-29 02:05:00,
2013-03-28 22:10:00,40.2,29.0,29.94,WNW,292,1.6,5.8,65,0.00,,,0.00,Rainwise IP-100,2013-03-29 02:10:00,
2013-03-28 22:15:00,40.4,29.0,29.94,WNW,292,1.9,5.1,64,0.00,,,0.00,Rainwise IP-100,2013-03-29 02:15:00,
2013-03-28 22:20:00,40.3,29.0,29.94,WNW,292,1.9,3.0,63,0.00,,,0.00,Rainwise IP-100,2013-03-29 02:20:00,
2013-03-28 22:25:00,40.1,29.0,29.94,WNW,292,1.9,3.0,63,0.00,,,0.00,Rainwise IP-100,2013-03-29 02:25:00,
2013-03-28 22:30:00,40.0,29.0,29.94,WSW,247,2.3,3.0,64,0.00,,,0.00,Rainwise IP-100,2013-03-29 02:30:00,
2013-03-28 22:35:00,39.9,29.0,29.94,WNW,292,1.9,4.2,64,0.00,,,0.00,Rainwise IP-100,2013-03-29 02:35:00,
2013-03-28 22:40:00,40.0,29.0,29.94,WNW,292,2.3,4.9,64,0.00,,,0.00,Rainwise IP-100,2013-03-29 02:40:00,
2013-03-28 22:45:00,40.0,29.0,29.94,WNW,292,2.1,6.5,64,0.00,,,0.00,Rainwise IP-100,2013-03-29 02:45:00,
2013-03-28 22:50:00,40.0,31.0,29.94,NNW,337,3.3,5.1,66,0.00,,,0.00,Rainwise IP-100,2013-03-29 02:50:00,
2013-03-28 22:55:00,40.1,31.0,29.94,WNW,292,3.7,6.5,67,0.00,,,0.00,Rainwise IP-100,2013-03-29 02:55:00,
2013-03-28 23:00:00,40.2,31.0,29.94,WNW,292,5.1,7.9,68,0.00,,,0.00,Rainwise IP-100,2013-03-29 03:00:00,
2013-03-28 23:05:00,40.4,31.0,29.94,WNW,292,3.5,7.0,69,0.00,,,0.00,Rainwise IP-100,2013-03-29 03:05:00,
2013-03-28 23:10:00,40.6,32.0,29.94,WNW,292,4.7,7.5,69,0.00,,,0.00,Rainwise IP-100,2013-03-29 03:10:00,
2013-03-28 23:15:00,40.5,32.0,29.94,WNW,292,1.9,6.3,70,0.00,,,0.00,Rainwise IP-100,2013-03-29 03:15:00,
2013-03-28 23:20:00,40.2,32.0,29.94,NNW,337,5.4,6.5,70,0.00,,,0.00,Rainwise IP-100,2013-03-29 03:20:00,
2013-03-28 23:25:00,40.2,32.0,29.94,WNW,292,2.6,7.2,71,0.00,,,0.00,Rainwise IP-100,2013-03-29 03:25:00,
2013-03-28 23:30:00,40.2,32.0,29.94,WNW,292,2.8,6.1,71,0.00,,,0.00,Rainwise IP-100,2013-03-29 03:30:00,
2013-03-28 23:35:00,40.1,32.0,29.94,WNW,292,4.2,6.1,71,0.00,,,0.00,Rainwise IP-100,2013-03-29 03:35:00,
2013-03-28 23:41:00,39.9,32.0,29.94,WNW,292,1.2,5.6,72,0.00,,,0.00,Rainwise IP-100,2013-03-29 03:41:00,
2013-03-28 23:46:00,39.6,32.0,29.94,NW,315,1.6,5.6,72,0.00,,,0.00,Rainwise IP-100,2013-03-29 03:46:00,
2013-03-28 23:51:00,39.2,32.0,29.94,West,270,0.0,5.6,73,0.00,,,0.00,Rainwise IP-100,2013-03-29 03:51:00,
2013-03-28 23:55:00,38.7,32.0,29.94,NW,315,3.3,4.7,74,0.00,,,0.00,Rainwise IP-100,2013-03-29 03:55:00,